Weather History for Manistique, MI

Change the Weather History Date:

Wednesday, November 7, 2012

  Actual Average Record
Temperature  
Mean Temperature 42 °F -  
Max Temperature 44 °F 43 °F 60 °F (1949)
Min Temperature 41 °F 27 °F 5 °F (1991)
Degree Days  
Heating Degree Days 22    
Moisture  
Dew Point 33 °F    
Average Humidity 70    
Maximum Humidity 81    
Minimum Humidity 61    
Precipitation  
Precipitation 0.00 in - - ()
Sea Level Pressure  
Sea Level Pressure 30.08 in    
Wind  
Wind Speed 8 mph (SSE)    
Max Wind Speed 13 mph    
Max Gust Speed 17 mph    
Visibility 10 miles    
Events      
Averages and records for this station are not official NWS values.
T = Trace of Precipitation, MM = Missing Value Source: NWS Daily Summary

Daily Weather History Graph

Daily Weather History Graph

Search for Another Location

Airport:

Trip Planner

Search our weather history database for the weather conditions in past years. The results will help you decide how hot, cold, wet, or windy it might be!

Date:

Astronomy

Nov. 07, 2012 Rise Set
Actual Time 7:34 AM EST 5:21 PM EST
Civil Twilight 7:02 AM EST 5:53 PM EST
Nautical Twilight 6:26 AM EST 6:29 PM EST
Astronomical Twilight 5:52 AM EST 7:04 PM EST
Moon 12:05 AM EST (11/7) 1:50 PM EST (11/7)
Length of Visible Light 10h 50m
Length of Day
9h 47m
Last Quarter, 43% of the Moon is Illuminated
Nov 7
Last Quarter
Nov 13
New
Nov 20
First Quarter
Nov 28
Full
Dec 6
Last Quarter

Hourly Weather History & Observations

Time (EST) Temp. Windchill Dew Point Humidity Pressure Visibility Wind Dir Wind Speed Gust Speed Precip Events Conditions
12:15 AM 41.0 °F 34.3 °F 35.6 °F 81% 29.98 in 10.0 mi SSE 11.5 mph - N/A   Overcast
12:34 AM 41.0 °F 34.7 °F 35.6 °F 81% 29.99 in 10.0 mi South 10.4 mph - N/A   Overcast
12:55 AM 41.0 °F 34.3 °F 35.6 °F 81% 29.99 in 10.0 mi SSE 11.5 mph - N/A   Overcast
1:14 AM 41.0 °F 35.2 °F 35.6 °F 81% 29.99 in 10.0 mi SSE 9.2 mph - N/A   Overcast
1:35 AM 41.0 °F 35.8 °F 33.8 °F 76% 29.99 in 10.0 mi SSE 8.1 mph - N/A   Overcast
1:54 AM 41.0 °F 36.4 °F 33.8 °F 76% 29.99 in 10.0 mi SE 6.9 mph - N/A   Overcast
2:15 AM 41.0 °F 35.8 °F 33.8 °F 76% 30.00 in 10.0 mi SSE 8.1 mph - N/A   Overcast
2:34 AM 41.0 °F 35.2 °F 33.8 °F 76% 30.00 in 10.0 mi SE 9.2 mph - N/A   Overcast
2:55 AM 41.0 °F 35.2 °F 33.8 °F 76% 30.00 in 10.0 mi SE 9.2 mph - N/A   Overcast
3:15 AM 41.0 °F 36.4 °F 33.8 °F 76% 30.01 in 10.0 mi SE 6.9 mph - N/A   Overcast
3:55 AM 41.0 °F 35.2 °F 32.0 °F 70% 30.01 in 10.0 mi SSE 9.2 mph - N/A   Overcast
4:14 AM 41.0 °F 36.4 °F 32.0 °F 70% 30.02 in 10.0 mi SE 6.9 mph - N/A   Overcast
4:35 AM 41.0 °F 37.1 °F 33.8 °F 76% 30.02 in 10.0 mi SE 5.8 mph - N/A   Overcast
4:55 AM 41.0 °F 35.8 °F 33.8 °F 76% 30.03 in 10.0 mi SE 8.1 mph - N/A   Overcast
5:14 AM 41.0 °F 36.4 °F 33.8 °F 76% 30.03 in 10.0 mi SSE 6.9 mph - N/A   Overcast
5:35 AM 41.0 °F 36.4 °F 33.8 °F 76% 30.03 in 10.0 mi SE 6.9 mph - N/A   Overcast
5:54 AM 41.0 °F 37.1 °F 33.8 °F 76% 30.04 in 10.0 mi SSE 5.8 mph - N/A   Overcast
6:15 AM 41.0 °F 35.8 °F 33.8 °F 76% 30.04 in 10.0 mi SE 8.1 mph - N/A   Overcast
6:34 AM 41.0 °F 36.4 °F 33.8 °F 76% 30.05 in 10.0 mi SSE 6.9 mph - N/A   Overcast
6:54 AM 42.8 °F 38.0 °F 33.8 °F 70% 30.05 in 10.0 mi SSE 8.1 mph - N/A   Overcast
7:15 AM 42.8 °F 38.0 °F 33.8 °F 70% 30.06 in 10.0 mi SE 8.1 mph - N/A   Overcast
7:34 AM 41.0 °F 36.4 °F 32.0 °F 70% 30.07 in 10.0 mi SSE 6.9 mph - N/A   Overcast
7:55 AM 42.8 °F 38.0 °F 32.0 °F 66% 30.07 in 10.0 mi SE 8.1 mph - N/A   Overcast
8:15 AM 42.8 °F 38.0 °F 33.8 °F 70% 30.08 in 10.0 mi SSE 8.1 mph - N/A   Overcast
8:34 AM 42.8 °F 36.6 °F 33.8 °F 70% 30.08 in 10.0 mi SE 11.5 mph - N/A   Overcast
8:55 AM 42.8 °F 37.5 °F 33.8 °F 70% 30.09 in 10.0 mi SE 9.2 mph - N/A   Overcast
9:14 AM 42.8 °F 37.0 °F 33.8 °F 70% 30.09 in 10.0 mi SE 10.4 mph - N/A   Overcast
9:34 AM 42.8 °F 36.2 °F 33.8 °F 70% 30.09 in 10.0 mi SE 12.7 mph - N/A   Overcast
9:55 AM 42.8 °F 36.2 °F 33.8 °F 70% 30.10 in 10.0 mi SE 12.7 mph - N/A   Overcast
10:14 AM 41.0 °F 34.7 °F 33.8 °F 76% 30.11 in 10.0 mi SE 10.4 mph 16.1 mph N/A   Overcast
10:35 AM 41.0 °F 34.7 °F 33.8 °F 76% 30.11 in 10.0 mi SSE 10.4 mph - N/A   Overcast
10:54 AM 41.0 °F 35.8 °F 33.8 °F 76% 30.12 in 10.0 mi SSE 8.1 mph - N/A   Overcast
11:14 AM 41.0 °F 33.9 °F 33.8 °F 76% 30.12 in 10.0 mi South 12.7 mph 16.1 mph N/A   Overcast
11:35 AM 42.8 °F 37.5 °F 33.8 °F 70% 30.11 in 10.0 mi SSE 9.2 mph 17.3 mph N/A   Overcast
11:54 AM 42.8 °F 38.0 °F 32.0 °F 66% 30.11 in 10.0 mi South 8.1 mph - N/A   Overcast
12:15 PM 42.8 °F 37.5 °F 32.0 °F 66% 30.11 in 10.0 mi SSE 9.2 mph - N/A   Overcast
12:35 PM 42.8 °F 38.6 °F 32.0 °F 66% 30.11 in 10.0 mi South 6.9 mph - N/A   Overcast
12:54 PM 42.8 °F 38.0 °F 30.2 °F 61% 30.11 in 10.0 mi South 8.1 mph - N/A   Overcast
1:15 PM 42.8 °F 37.0 °F 32.0 °F 66% 30.12 in 10.0 mi SSE 10.4 mph - N/A   Overcast
1:34 PM 42.8 °F 37.5 °F 32.0 °F 66% 30.11 in 10.0 mi SSE 9.2 mph - N/A   Overcast
1:54 PM 42.8 °F 38.0 °F 30.2 °F 61% 30.11 in 10.0 mi South 8.1 mph - N/A   Overcast
2:14 PM 42.8 °F 38.0 °F 32.0 °F 66% 30.11 in 10.0 mi SSE 8.1 mph - N/A   Overcast
2:35 PM 42.8 °F 37.5 °F 30.2 °F 61% 30.10 in 10.0 mi SSE 9.2 mph - N/A   Overcast
2:55 PM 42.8 °F 37.5 °F 30.2 °F 61% 30.10 in 10.0 mi SE 9.2 mph - N/A   Overcast
3:14 PM 42.8 °F 37.5 °F 32.0 °F 66% 30.10 in 10.0 mi SSE 9.2 mph - N/A   Overcast
3:35 PM 42.8 °F 38.6 °F 30.2 °F 61% 30.11 in 10.0 mi SSE 6.9 mph - N/A   Overcast
3:55 PM 42.8 °F 39.3 °F 32.0 °F 66% 30.11 in 10.0 mi SSE 5.8 mph - N/A   Overcast
4:14 PM 42.8 °F 38.6 °F 30.2 °F 61% 30.11 in 10.0 mi SE 6.9 mph - N/A   Overcast
4:40 PM 42.8 °F 40.1 °F 30.2 °F 61% 30.11 in 10.0 mi SSE 4.6 mph - N/A   Overcast
4:54 PM 42.8 °F 39.3 °F 30.2 °F 61% 30.11 in 10.0 mi SSE 5.8 mph - N/A   Overcast
5:15 PM 41.0 °F 36.4 °F 30.2 °F 65% 30.11 in 10.0 mi SE 6.9 mph - N/A   Overcast
5:35 PM 41.0 °F 36.4 °F 28.4 °F 61% 30.11 in 10.0 mi SSE 6.9 mph - N/A   Overcast
6:15 PM 41.0 °F 39.0 °F 30.2 °F 65% 30.12 in 10.0 mi SE 3.5 mph - N/A   Overcast
6:34 PM 41.0 °F 39.0 °F 30.2 °F 65% 30.13 in 10.0 mi SSE 3.5 mph - N/A   Overcast
6:54 PM 41.0 °F 39.0 °F 32.0 °F 70% 30.13 in 10.0 mi SSE 3.5 mph - N/A   Overcast
7:15 PM 41.0 °F 38.0 °F 32.0 °F 70% 30.13 in 10.0 mi SSE 4.6 mph - N/A   Overcast
7:34 PM 41.0 °F 37.1 °F 32.0 °F 70% 30.13 in 10.0 mi SSE 5.8 mph - N/A   Overcast
7:55 PM 42.8 °F 40.1 °F 32.0 °F 66% 30.13 in 10.0 mi SSE 4.6 mph - N/A   Overcast
8:15 PM 42.8 °F 37.5 °F 33.8 °F 70% 30.12 in 10.0 mi SE 9.2 mph - N/A   Overcast
8:34 PM 42.8 °F 39.3 °F 33.8 °F 70% 30.12 in 10.0 mi SSE 5.8 mph - N/A   Overcast
8:55 PM 42.8 °F 38.0 °F 32.0 °F 66% 30.12 in 10.0 mi SSE 8.1 mph - N/A   Overcast
9:14 PM 42.8 °F 40.1 °F 33.8 °F 70% 30.12 in 10.0 mi SSE 4.6 mph - N/A   Overcast
9:35 PM 42.8 °F 39.3 °F 32.0 °F 66% 30.12 in 10.0 mi SSE 5.8 mph - N/A   Overcast
9:55 PM 42.8 °F 39.3 °F 33.8 °F 70% 30.12 in 10.0 mi SSE 5.8 mph - N/A   Overcast
10:14 PM 42.8 °F 39.3 °F 33.8 °F 70% 30.12 in 10.0 mi SSE 5.8 mph - N/A   Overcast
10:34 PM 42.8 °F 40.1 °F 33.8 °F 70% 30.12 in 10.0 mi SSE 4.6 mph - N/A   Overcast
10:54 PM 42.8 °F 40.1 °F 33.8 °F 70% 30.12 in 10.0 mi South 4.6 mph - N/A   Overcast
11:15 PM 44.6 °F 41.4 °F 33.8 °F 66% 30.12 in 10.0 mi SSE 5.8 mph - N/A   Overcast
11:34 PM 44.6 °F 40.7 °F 33.8 °F 66% 30.12 in 10.0 mi South 6.9 mph - N/A   Overcast
11:55 PM 44.6 °F 42.2 °F 33.8 °F 66% 30.12 in 10.0 mi South 4.6 mph - N/A   Overcast